Regional Weather Roundup
Issued by NWS

Home | Current Version | Previous Version | Text Only | Print | Product List | Glossary Off
Versions: 1 2 3 4 5 6 7 8 9 10 11 12 13 14 15 16 17 18 19 20 21 22 23 24 25 26 27 28 29 30 31 32 33 34 35 36 37 38 39 40 41 42 43 44 45 46 47 48 49 50

000
ASUS45 KCYS 120410
RWRWY

WYOMING REGIONAL WEATHER ROUNDUP
NATIONAL WEATHER SERVICE CHEYENNE WY
1000 PM MDT FRI JUL 11 2014

NOTE:  "FAIR" INDICATES FEW OR NO CLOUDS BELOW 12,000 FEET
WITH NO SIGNIFICANT WEATHER AND/OR OBSTRUCTIONS TO VISIBILITY.

WYZ001-120500-
YELLOWSTONE NATIONAL PARK

CITY           SKY/WX    TMP DP  RH WIND       PRES   REMARKS
LK YELLOWSTONE   N/A     53  48  83 CALM      30.41R
W YELLOWSTONE  NOT AVBL

$$
WYZ002>013-054>058-071-098>099-120500-
NORTHERN WYOMING

CITY           SKY/WX    TMP DP  RH WIND       PRES   REMARKS
JACKSON        CLOUDY    59  55  88 W6        30.32F
CODY           CLOUDY    70  50  49 SW12G30   30.19S
GREYBULL       MOCLDY    67  57  70 E9        30.13R
WORLAND        CLOUDY    69  57  65 S15       30.16R
SHERIDAN       LGT RAIN  67  60  78 VRB3      30.12F
BUFFALO        CLOUDY    68  51  54 S15       30.22F
GILLETTE       CLOUDY    66  58  75 S20G31    30.15F
HULETT         FAIR      66  55  68 MISG      30.20
NEWCASTLE      FAIR      63  57  82 MISG      30.22

$$
WYZ014>020-022>026-101>103-120500-
CENTRAL WYOMING

CITY           SKY/WX    TMP DP  RH WIND       PRES   REMARKS
BIG PINEY      CLOUDY    64  48  56 N8        30.33R
PINEDALE       CLOUDY    61  50  67 W5        30.34R
DUBOIS         CLOUDY    54  52  94 NW7       30.38R
LANDER         CLOUDY    62  57  83 E6        30.26R
RIVERTON       CLOUDY    62  60  93 NE5       30.27R
CASPER         CLOUDY    63  58  83 E9        30.27R
DOUGLAS        CLOUDY    64  55  72 CALM      30.26R

$$
WYZ021-027>030-104>119-120500-
SOUTHERN WYOMING

CITY           SKY/WX    TMP DP  RH WIND       PRES   REMARKS
EVANSTON       MOCLDY    65  55  70 N3        30.31R
KEMMERER       CLOUDY   N/A N/A N/A CALM      30.33R
FORT BRIDGER   CLOUDY    64  54  70 S5        30.33R
ROCK SPRINGS   CLOUDY    59  52  77 NE20      30.30R
DIXON          FAIR      65  56  71 NE9       30.26R
RAWLINS        MOCLDY    60  55  83 NE8       30.31R
SARATOGA       FAIR      59  55  88 SW7       30.31R
LARAMIE        TSTM      59  58  96 E13       30.34F FOG
CHEYENNE       MOCLDY    63  61  93 N8        30.26R
TORRINGTON     LGT RAIN  62  61  96 NE20      30.17S

$$



USA.gov is the U.S. government's official web portal to all federal, state and local government web resources and services.